OBJECT F, 56748

Orbit data source: Space-Track

You're viewing an Uncataloged Satellite

Recently launched and/or uncataloged satellites may have evolving metadata. Metadata may include but not limited to: Owner, Maufacturer, Bus, Motor, and Mission.

OBJECT F, 56748 is a South Korean satellite in SSO that was launched on Thu, 25 May 2023 UTC via an NURI launch vehicle from the Naro Space Center, South Korea (NSC). Unknown objects in Earth's orbit typically refer to objects detected orbiting the Earth but have not yet been identified or cataloged. These objects could be anything from previously untracked satellites, spent rocket stages, debris from satellite collisions, or even natural meteoroids temporarily captured by Earth's gravity.

Loading next visibility...
Identifier
56748, 2023-072F
Orbit
SSO
Country
Flag of UnknownUnknown / SKOR
Related business
None
Manufacturer
Unknown
Mission
Operational Commercial Imaging
Bus & Motor
Unknown
Mass
Unknown
Launch date (UTC)
2023-05-25 (3 years ago)
Launch vehicle
NURI
Launch site
Naro Space Center, South Korea (NSC)
Object type
Unknown
Shape & HBR
Box, 0.1 m
Radar Cross Section
0.035 m², Medium (>0.1 m² and < 1m²)

Expand to show TLE details & history
Last TLE update: 14 hours ago

TLE from 14 hours ago
0 OBJECT F
1 56748U 23072F   26034.62321839  .00012794  00000-0  46136-3 0  9999
2 56748  97.5157 231.0881 0007003 121.4411 238.7514 15.28645131149351
Epoch: 2026-02-03T14:57Z
TLE epoch observation values (Epoch: 2026-02-03T14:57:26.068Z)
Latitude
-0.00005°
Longitude
-127.07201°
Altitude
485.455 km
Speed
7.621 km/s
True Right ascension
15h 24m 21s
True Declination
0° 00' 00"
Sunlit
Object was in daylight at epoch
Visualization orbit readout
Latitude
Unknown
Longitude
Unknown
Altitude
Unknown
Speed
Unknown
Apparent Right ascension
Unknown
Apparent Declination
Unknown
Sunlit
N/A
Visualization observer readout
Local Sidereal Time
07:09:43
Azimuth
Unknown
Elevation
Unknown
Doppler factor
Unknown
Orbital elements
Apogee altitude
481.621 km
Perigee altitude
472.02 km
Semi-major axis
6,854.958 km
Eccentricity
0.0007
Inclination
97.5157°
RAAN
231.0881°
Arg. of periapsis
121.4411°
True anomaly
238.68282°
Mean anomaly
238.7514°
Eccentric anomaly
238.71711°
Mean motion
3.82416 °/min
Orbital period
94.14 mins
BSTAR
0.00046136
Loading maneuver chart data...
Computing Atmospheric mass density...
Loading historical data...
Loading historical data...
Loading historical data...
Loading historical data...
Loading historical data...
Loading historical data...
Loading historical data...

Documentation

Showing up to 5 results
|